Location: Barcelona
(41.3830°N, 2.1830°E)
Time: 16:06:33
(UTC+02:00)

ISS - Pass Details

Date: 14 September 2019
Orbit: 411 x 421 km, 51.6° (Epoch: 18 September)

Event Time Altitude Azimuth Distance (km) Brightness Sun altitude
Exits shadow 06:18:08 20° 296° (WNW) 1,034 -2.2 -14.0°
Maximum altitude 06:20:17 63° 219° (SW) 469 -3.8 -13.7°
Drops below altitude 10° 06:23:36 10° 138° (SE) 1,486 -0.6 -13.1°
Sets 06:25:42 0° 135° (SE) 2,347 0.5 -12.7°
